Weather History for Newberry, MI

Change the Weather History Date:

Thursday, February 7, 2013

  Actual Average Record
Temperature  
Mean Temperature 14 °F -  
Max Temperature 15 °F 23 °F 45 °F (1991)
Min Temperature 12 °F 5 °F -21 °F (1967)
Degree Days  
Heating Degree Days 52    
Moisture  
Dew Point 11 °F    
Average Humidity 87    
Maximum Humidity 93    
Minimum Humidity 79    
Precipitation  
Precipitation 0.00 in - - ()
Sea Level Pressure  
Sea Level Pressure 30.19 in    
Wind  
Wind Speed 8 mph (NE)    
Max Wind Speed 13 mph    
Max Gust Speed 17 mph    
Visibility 6 miles    
Events Snow    
Averages and records for this station are not official NWS values.
T = Trace of Precipitation, MM = Missing Value Source: NWS Daily Summary

Daily Weather History Graph

Daily Weather History Graph

Search for Another Location

Airport:

Trip Planner

Search our weather history database for the weather conditions in past years. The results will help you decide how hot, cold, wet, or windy it might be!

Date:

Astronomy

Feb. 07, 2013 Rise Set
Actual Time 7:56 AM EST 5:55 PM EST
Civil Twilight 7:25 AM EST 6:27 PM EST
Nautical Twilight 6:49 AM EST 7:03 PM EST
Astronomical Twilight 6:14 AM EST 7:38 PM EST
Moon 5:41 AM EST (2/7) 3:14 PM EST (2/7)
Length of Visible Light 11h 02m
Length of Day
9h 59m
Waning Crescent, 9% of the Moon is Illuminated
Feb 7
Waning Crescent
Feb 10
New
Feb 17
First Quarter
Feb 25
Full
Mar 4
Last Quarter

Hourly Weather History & Observations

Time (EST) Temp. Windchill Dew Point Humidity Pressure Visibility Wind Dir Wind Speed Gust Speed Precip Events Conditions
12:14 AM 15.8 °F 6.1 °F 12.2 °F 86% 30.20 in 2.0 mi East 6.9 mph - N/A Snow Light Snow
12:35 AM 14.0 °F 5.1 °F 12.2 °F 93% 30.21 in 1.8 mi NE 5.8 mph - N/A Snow Light Snow
12:54 AM 14.0 °F 3.9 °F 12.2 °F 93% 30.21 in 1.5 mi ENE 6.9 mph - N/A Snow Light Snow
1:15 AM 12.2 °F 0.7 °F 10.4 °F 92% 30.20 in 2.0 mi ENE 8.1 mph - N/A Snow Light Snow
1:34 AM 12.2 °F 0.7 °F 10.4 °F 92% 30.21 in 3.0 mi East 8.1 mph - N/A Snow Light Snow
1:55 AM 12.2 °F 1.7 °F 10.4 °F 92% 30.21 in 2.5 mi ENE 6.9 mph - N/A Snow Light Snow
2:14 AM 12.2 °F 0.7 °F 10.4 °F 92% 30.21 in 1.5 mi ENE 8.1 mph - N/A Snow Light Snow
2:34 AM 12.2 °F 2.9 °F 10.4 °F 92% 30.22 in 2.5 mi NE 5.8 mph - N/A Snow Light Snow
2:55 AM 12.2 °F 1.7 °F 8.6 °F 85% 30.22 in 2.5 mi NE 6.9 mph - N/A Snow Light Snow
3:14 AM 12.2 °F 0.7 °F 8.6 °F 85% 30.21 in 1.8 mi ENE 8.1 mph - N/A Snow Light Snow
3:35 AM 12.2 °F 0.7 °F 8.6 °F 85% 30.21 in 2.5 mi ENE 8.1 mph - N/A Snow Light Snow
3:55 AM 12.2 °F 1.7 °F 8.6 °F 85% 30.20 in 2.5 mi ENE 6.9 mph - N/A Snow Light Snow
4:14 AM 12.2 °F 1.7 °F 8.6 °F 85% 30.19 in 1.8 mi ENE 6.9 mph - N/A Snow Light Snow
4:35 AM 12.2 °F 4.3 °F 10.4 °F 92% 30.20 in 3.0 mi ENE 4.6 mph - N/A Snow Light Snow
4:55 AM 12.2 °F 0.7 °F 8.6 °F 85% 30.20 in 3.0 mi ENE 8.1 mph - N/A Snow Light Snow
5:14 AM 12.2 °F 1.7 °F 8.6 °F 85% 30.20 in 2.5 mi ENE 6.9 mph - N/A Snow Light Snow
5:35 AM 12.2 °F 1.7 °F 8.6 °F 85% 30.19 in 2.5 mi ENE 6.9 mph - N/A Snow Light Snow
5:54 AM 12.2 °F 1.7 °F 8.6 °F 85% 30.19 in 2.5 mi ENE 6.9 mph - N/A Snow Light Snow
6:15 AM 12.2 °F 0.7 °F 8.6 °F 85% 30.19 in 3.0 mi NE 8.1 mph - N/A Snow Light Snow
6:35 AM 12.2 °F 0.7 °F 8.6 °F 85% 30.19 in 2.5 mi ENE 8.1 mph - N/A Snow Light Snow
6:54 AM 12.2 °F 0.7 °F 8.6 °F 85% 30.19 in 7.0 mi ENE 8.1 mph - N/A Snow Light Snow
7:15 AM 12.2 °F 0.7 °F 8.6 °F 85% 30.19 in 7.0 mi ENE 8.1 mph - N/A Snow Light Snow
7:34 AM 12.2 °F -0.2 °F 8.6 °F 85% 30.19 in 7.0 mi ENE 9.2 mph - N/A Snow Light Snow
7:54 AM 12.2 °F -0.2 °F 10.4 °F 92% 30.19 in 10.0 mi ENE 9.2 mph - N/A Snow Light Snow
8:15 AM 12.2 °F 0.7 °F 8.6 °F 85% 30.20 in 7.0 mi ENE 8.1 mph - N/A Snow Light Snow
8:34 AM 12.2 °F -0.2 °F 10.4 °F 92% 30.20 in 5.0 mi NE 9.2 mph - N/A Snow Light Snow
8:55 AM 12.2 °F -0.2 °F 8.6 °F 85% 30.21 in 4.0 mi ENE 9.2 mph - N/A Snow Light Snow
9:15 AM 12.2 °F -0.2 °F 8.6 °F 85% 30.21 in 2.5 mi ENE 9.2 mph - N/A Snow Light Snow
9:34 AM 12.2 °F -1.0 °F 8.6 °F 85% 30.21 in 2.5 mi ENE 10.4 mph - N/A Snow Light Snow
9:55 AM 12.2 °F 0.7 °F 8.6 °F 85% 30.22 in 2.5 mi ENE 8.1 mph - N/A Snow Light Snow
10:15 AM 12.2 °F -1.0 °F 8.6 °F 85% 30.22 in 2.0 mi ENE 10.4 mph - N/A Snow Light Snow
10:34 AM 12.2 °F -1.0 °F 8.6 °F 85% 30.21 in 1.8 mi ENE 10.4 mph - N/A Snow Light Snow
10:55 AM 12.2 °F -0.2 °F 10.4 °F 92% 30.22 in 2.5 mi ENE 9.2 mph - N/A Snow Light Snow
11:14 AM 12.2 °F -0.2 °F 10.4 °F 92% 30.21 in 4.0 mi NE 9.2 mph - N/A Snow Light Snow
11:35 AM 12.2 °F -2.5 °F 10.4 °F 92% 30.21 in 3.0 mi ENE 12.7 mph - N/A Snow Light Snow
11:55 AM 12.2 °F -2.5 °F 10.4 °F 92% 30.22 in 4.0 mi NE 12.7 mph - N/A Snow Light Snow
12:14 PM 12.2 °F -1.0 °F 10.4 °F 92% 30.21 in 2.5 mi NE 10.4 mph - N/A Snow Light Snow
12:35 PM 14.0 °F 1.2 °F 10.4 °F 86% 30.20 in 3.0 mi ENE 10.4 mph - N/A Snow Light Snow
12:54 PM 14.0 °F -0.2 °F 10.4 °F 86% 30.19 in 4.0 mi ENE 12.7 mph - N/A Snow Light Snow
1:14 PM 14.0 °F 0.5 °F 10.4 °F 86% 30.19 in 7.0 mi NE 11.5 mph - N/A Snow Light Snow
1:35 PM 15.8 °F 3.4 °F 10.4 °F 79% 30.19 in 10.0 mi NE 10.4 mph - N/A Snow Light Snow
1:54 PM 15.8 °F 2.7 °F 12.2 °F 86% 30.18 in 7.0 mi NE 11.5 mph - N/A Snow Light Snow
2:15 PM 15.8 °F 3.4 °F 12.2 °F 86% 30.16 in 10.0 mi NE 10.4 mph - N/A   Overcast
2:35 PM 15.8 °F 2.7 °F 10.4 °F 79% 30.16 in 10.0 mi NE 11.5 mph - N/A Snow Light Snow
2:54 PM 15.8 °F 3.4 °F 10.4 °F 79% 30.16 in 10.0 mi NE 10.4 mph - N/A   Overcast
3:15 PM 15.8 °F 3.4 °F 10.4 °F 79% 30.16 in 10.0 mi NNE 10.4 mph - N/A   Overcast
3:35 PM 15.8 °F 2.7 °F 10.4 °F 79% 30.17 in 10.0 mi NE 11.5 mph - N/A   Overcast
3:54 PM 15.8 °F 2.7 °F 12.2 °F 86% 30.17 in 10.0 mi NE 11.5 mph - N/A   Overcast
4:15 PM 15.8 °F 3.4 °F 12.2 °F 86% 30.16 in 10.0 mi NE 10.4 mph - N/A   Overcast
4:34 PM 15.8 °F 2.1 °F 12.2 °F 86% 30.16 in 10.0 mi NE 12.7 mph - N/A Snow Light Snow
4:55 PM 15.8 °F 4.2 °F 12.2 °F 86% 30.16 in 10.0 mi NE 9.2 mph 17.3 mph N/A Snow Light Snow
5:14 PM 15.8 °F 5.1 °F 12.2 °F 86% 30.16 in 10.0 mi NE 8.1 mph - N/A   Overcast
5:34 PM 15.8 °F 5.1 °F 12.2 °F 86% 30.16 in 10.0 mi NNE 8.1 mph - N/A   Overcast
5:55 PM 15.8 °F 5.1 °F 12.2 °F 86% 30.16 in 10.0 mi NNE 8.1 mph - N/A   Overcast
6:14 PM 15.8 °F 6.1 °F 12.2 °F 86% 30.16 in 7.0 mi NNE 6.9 mph - N/A Snow Light Snow
6:35 PM 15.8 °F 6.1 °F 12.2 °F 86% 30.16 in 7.0 mi NNE 6.9 mph - N/A Snow Light Snow
6:54 PM 15.8 °F 5.1 °F 12.2 °F 86% 30.17 in 5.0 mi NNE 8.1 mph - N/A Snow Light Snow
7:15 PM 15.8 °F 6.1 °F 12.2 °F 86% 30.16 in 7.0 mi NNE 6.9 mph - N/A Snow Light Snow
7:35 PM 15.8 °F 6.1 °F 12.2 °F 86% 30.17 in 10.0 mi NNE 6.9 mph - N/A Snow Light Snow
7:54 PM 15.8 °F 5.1 °F 12.2 °F 86% 30.17 in 10.0 mi NNE 8.1 mph - N/A   Overcast
8:15 PM 15.8 °F 5.1 °F 14.0 °F 93% 30.17 in 10.0 mi NNE 8.1 mph - N/A Snow Light Snow
8:35 PM 15.8 °F 6.1 °F 14.0 °F 93% 30.17 in 10.0 mi NNE 6.9 mph - N/A   Overcast
8:54 PM 15.8 °F 4.2 °F 14.0 °F 93% 30.17 in 10.0 mi NNE 9.2 mph - N/A   Overcast
9:15 PM 15.8 °F 3.4 °F 12.2 °F 86% 30.17 in 10.0 mi NNE 10.4 mph - N/A Snow Light Snow
9:34 PM 15.8 °F 5.1 °F 12.2 °F 86% 30.17 in 10.0 mi NNE 8.1 mph - N/A Snow Light Snow
9:54 PM 15.8 °F 5.1 °F 12.2 °F 86% 30.17 in 10.0 mi NNE 8.1 mph - N/A Snow Light Snow
10:15 PM 15.8 °F 5.1 °F 14.0 °F 93% 30.17 in 10.0 mi NNE 8.1 mph - N/A   Overcast
10:34 PM 15.8 °F 5.1 °F 14.0 °F 93% 30.17 in 10.0 mi NNE 8.1 mph - N/A   Overcast
10:55 PM 15.8 °F 4.2 °F 12.2 °F 86% 30.17 in 10.0 mi NNE 9.2 mph - N/A   Overcast
11:15 PM 15.8 °F 4.2 °F 12.2 °F 86% 30.17 in 10.0 mi NNE 9.2 mph - N/A   Overcast
11:34 PM 15.8 °F 6.1 °F 12.2 °F 86% 30.17 in 10.0 mi NNE 6.9 mph - N/A   Overcast
11:55 PM 15.8 °F 5.1 °F 12.2 °F 86% 30.17 in 10.0 mi NNE 8.1 mph - N/A   Overcast